EW4799 Weather Reports


time (UTC)temp
F
wind
direction
speed
knots
gust
knots
rain 1hr
in
rain 24hr
in
rain mn
in
humidity
%
barometer
mb
20260905093055 52 0 0.0 0.0 0.00 0.00 0.00 83 1017.1
20260905091608 52 0 0.0 0.0 0.00 0.00 0.00 83 1017.0
20260905090100 52 0 0.0 0.0 0.00 0.00 0.00 84 1017.0
20260905084619 53 0 0.0 0.0 0.00 0.00 0.00 84 1017.0
20260905083059 53 0 0.0 0.0 0.00 0.00 0.00 84 1017.0
20260905081603 53 0 0.0 0.0 0.00 0.00 0.00 84 1017.1
20260905074605 53 0 0.0 0.0 0.00 0.00 0.00 85 1017.0
20260905073107 53 0 0.0 0.0 0.00 0.00 0.00 85 1016.9
20260905071559 54 0 0.0 0.0 0.00 0.00 0.00 85 1016.7
20260905070106 54 0 0.0 0.0 0.00 0.00 0.00 86 1016.7
20260905064558 54 0 0.0 0.0 0.00 0.00 0.00 86 1016.5
20260905063056 55 0 0.0 0.0 0.00 0.00 0.00 86 1016.6
20260905061610 55 0 0.0 0.0 0.00 0.00 0.00 86 1016.5
20260905060105 56 0 0.0 0.0 0.00 0.00 0.00 86 1016.5
20260905054603 56 0 0.0 0.0 0.00 0.00 0.00 86 1016.4
20260905053141 56 0 0.0 0.0 0.00 0.00 0.00 86 1016.2
20260905051559 57 0 0.0 0.0 0.00 0.00 0.00 85 1016.2
20260905050105 57 0 0.0 0.0 0.00 0.00 0.00 85 1016.3
20260905044602 57 0 0.0 0.0 0.00 0.00 0.00 85 1016.4
20260905043111 57 0 0.0 0.0 0.00 0.00 0.00 85 1016.3
20260905041556 58 0 0.0 0.0 0.00 0.00 0.00 84 1016.4
20260905040104 58 0 0.0 0.9 0.00 0.00 0.00 84 1016.5
20260905034553 58 0 0.0 0.9 0.00 0.00 0.00 83 1016.4
20260905033101 58 0 0.0 0.9 0.00 0.00 0.00 83 1016.2
20260905031602 59 0 0.0 1.7 0.00 0.00 0.00 82 1016.1
20260905030101 59 0 0.0 0.9 0.00 0.00 0.00 82 1015.8
20260905024623 59 0 0.0 0.9 0.00 0.00 0.00 82 1015.8
20260905023105 59 0 0.0 1.7 0.00 0.00 0.00 82 1015.7
20260905021602 60 16 0.0 0.9 0.00 0.00 0.00 82 1015.7
20260905020109 61 0 0.0 2.6 0.00 0.00 0.00 80 1015.7
20260905014600 63 0 0.0 1.7 0.00 0.00 0.00 76 1015.7
20260905013103 63 0 0.0 1.7 0.00 0.00 0.00 75 1015.7
20260905011608 64 0 0.0 0.9 0.00 0.00 0.00 73 1015.6
20260905010104 66 347 0.0 0.9 0.00 0.00 0.00 67 1015.5
20260905004603 69 0 0.0 1.7 0.00 0.00 0.00 60 1015.3
20260905003103 72 335 0.0 2.6 0.00 0.00 0.00 53 1015.0
20260905001606 74 30 0.9 3.5 0.00 0.00 0.00 47 1014.7
20260905000109 75 168 0.9 4.3 0.00 0.00 0.00 43 1014.5
20260904234607 77 181 0.0 3.5 0.00 0.00 0.00 43 1014.5
20260904233100 77 0 0.9 3.5 0.00 0.00 0.00 43 1014.6
20260904231557 76 0 0.9 3.5 0.00 0.00 0.00 44 1014.3
20260904230105 77 0 0.0 4.3 0.00 0.00 0.00 45 1014.2
20260904224605 76 0 0.9 5.2 0.00 0.00 0.00 45 1014.1
20260904223104 76 0 0.0 3.5 0.00 0.00 0.00 45 1013.9
20260904221607 75 167 0.9 2.6 0.00 0.00 0.00 43 1014.0
20260904214559 73 155 0.9 4.3 0.00 0.00 0.00 49 1013.8
20260904213103 72 22 0.9 3.5 0.00 0.00 0.00 51 1013.9
20260904211557 73 172 0.0 3.5 0.00 0.00 0.00 52 1013.8
20260904210104 72 176 0.9 3.5 0.00 0.00 0.00 53 1013.7
20260904204600 71 158 0.9 4.3 0.00 0.00 0.00 57 1013.7
20260904203100 70 146 0.0 3.5 0.00 0.00 0.00 58 1013.7
20260904201635 68 0 0.0 3.5 0.00 0.00 0.00 60 1013.8
20260904200100 68 193 0.0 1.7 0.00 0.00 0.00 64 1013.8
20260904194609 67 184 0.0 2.6 0.00 0.00 0.00 66 1014.0
20260904193106 66 154 0.9 2.6 0.00 0.00 0.00 65 1014.1
20260904191558 64 153 0.0 2.6 0.00 0.00 0.00 67 1014.0
20260904184601 64 193 0.0 3.5 0.00 0.00 0.00 71 1014.3
20260904183057 63 226 0.0 2.6 0.00 0.00 0.00 73 1014.2
20260904181557 62 229 0.0 2.6 0.00 0.00 0.00 75 1014.2
20260904180058 62 150 0.0 2.6 0.00 0.00 0.00 75 1014.1
20260904174601 62 144 0.0 2.6 0.00 0.00 0.00 76 1014.2
20260904173125 62 0 0.0 1.7 0.00 0.00 0.00 77 1014.1
20260904171610 61 0 0.0 0.9 0.00 0.00 0.00 79 1014.2
20260904170100 60 0 0.0 1.7 0.00 0.00 0.00 80 1014.2
20260904164600 60 0 0.0 1.7 0.00 0.00 0.00 82 1014.1
20260904163059 59 186 0.0 0.9 0.00 0.00 0.00 84 1014.2
20260904161605 58 0 0.0 0.9 0.00 0.00 0.00 84 1014.2
20260904160055 57 0 0.0 0.9 0.00 0.00 0.00 85 1014.1
20260904154600 56 0 0.0 1.7 0.00 0.00 0.00 86 1014.0
20260904153104 56 0 0.0 0.9 0.00 0.00 0.00 87 1013.9
20260904151614 54 204 0.0 0.9 0.00 0.00 0.00 84 1013.8
20260904150125 54 0 0.0 0.0 0.00 0.00 0.00 81 1013.6
20260904144557 53 0 0.0 0.0 0.00 0.00 0.00 81 1013.4
20260904143104 53 0 0.0 0.0 0.00 0.00 0.00 81 1013.3
20260904141615 53 0 0.0 0.0 0.00 0.00 0.00 82 1013.2
20260904140105 52 0 0.0 0.0 0.00 0.00 0.00 82 1013.1
20260904134609 52 0 0.0 0.0 0.00 0.01 0.00 82 1013.1
20260904133110 53 0 0.0 0.0 0.00 0.01 0.00 83 1012.9
20260904131601 53 0 0.0 0.0 0.00 0.01 0.00 81 1012.8
20260904130100 52 0 0.0 0.0 0.00 0.01 0.00 81 1012.5
20260904124600 52 0 0.0 0.0 0.00 0.03 0.00 81 1012.4
20260904123104 52 0 0.0 0.0 0.00 0.03 0.00 80 1012.4
20260904121559 52 0 0.0 0.0 0.00 0.03 0.00 81 1012.4
20260904120107 52 0 0.0 0.0 0.00 0.03 0.00 81 1012.0
20260904114557 53 0 0.0 0.0 0.00 0.03 0.00 81 1012.1
20260904113110 53 0 0.0 0.0 0.00 0.03 0.00 81 1011.8
20260904111605 53 0 0.0 0.0 0.00 0.03 0.00 81 1011.8
20260904110101 53 0 0.0 0.0 0.00 0.03 0.00 81 1011.7
20260904104555 53 0 0.0 0.0 0.00 0.03 0.00 82 1011.8
20260904103108 53 0 0.0 0.0 0.00 0.03 0.00 82 1011.7
20260904101605 54 0 0.0 0.0 0.00 0.03 0.00 83 1011.6
20260904100059 54 0 0.0 0.0 0.00 0.03 0.00 83 1011.4
20260904094605 55 0 0.0 0.0 0.00 0.04 0.00 82 1011.5